www.pogodaiklimat.ru

Погода и климат >> Архив погоды >> Иран >> Миан


ПОГОДА в Миане

  • Прогноз погоды в Миане
  • Монитор погоды в Миане

АРХИВ ПОГОДЫ в Миане

Время (UTC), дата Ветер
(напр.,м/с)
 
Видим.   Явления Облачность Т
(С)
Тd
(С)
f
(%)
Тe
(С)
Тes
(С)
Комфортность P
(гПа)
Po
(гПа)
Тmin
(С)
Tmax
(С)
R
(мм)
R24
(мм)
S
(см)
06 15.09 штиль 0 15 км ясно +20.0 +9.3 50 +21 +32 комфорт 1015.4 894.2
09 15.09 ЮЗ 2 15 км ясно +26.0 +8.9 34 +26 +41 жарко 1012.2 892.3
12 15.09 СВ 2 15 км ясно +29.0 +8.1 27 +28 +35 жарко 1009.7 890.3
15 15.09 СВ 3 15 км ясно +28.6 +8.5 28 +28 +28 жарко 1008.6 888.5 +31.4
18 15.09 СВ 5 15 км 3/3 1200 м
[Sc diur, vesp]
+24.8 +9.1 37 +25 +25 комфорт 1010.8 891.1
21 15.09 СВ 5 12 км в посл. час гроза {ливн. осадки} 6/6 1050 м
[Cb cap]
+22.2 +9.6 45 +24 +24 комфорт 1010.1 891.1
00 16.09 СВ 5 12 км {гроза, ливн. осадки} 5/5 1050 м
[Cb cap Ac cuf]
+20.2 +10.4 53 +22 +22 комфорт 1011.3 892.4 0.0
03 16.09 СВ 3 15 км 6/5 1050 м
[Cb cap Ac cuf]
+19.0 +10.6 58 +20 +20 1012.5 893.2 +18.8
06 16.09 СВ 6 15 км 5/4 1200 м
[Cu hum Ci fib]
+22.4 +12.0 52 +25 +27 комфорт 1013.1 893.7
09 16.09 СВ 4 15 км ясно +28.8 +11.7 35 +30 +39 жарко 1009.5 891.2
12 16.09 СВ 2 15 км 1/1 1200 м
[Sc diur, vesp]
+31.8 +10.7 27 +32 +37 жарко 1006.0 888.2
15 16.09 штиль 0 15 км ясно +30.2 +11.1 31 +31 +31 жарко 1005.9 887.7 +33.4
18 16.09 СВ 2 15 км ясно +24.0 +6.9 33 +24 +24 комфорт 1009.0 889.7
21 16.09 ЮЗ 3 15 км ясно +23.2 +6.1 33 +24 +24 комфорт 1008.3 890.1
00 17.09 штиль 0 15 км ясно +21.2 +5.7 36 +22 +22 комфорт 1008.7 890.7
03 17.09 штиль 0 15 км 1/1 1200 м
[Sc diur, vesp]
+16.6 +3.0 40 +17 +17 1010.6 891.1 +15.8
06 17.09 штиль 0 15 км 1/0
[Ci fib]
+24.0 +7.4 34 +24 +35 комфорт 1010.0 891.4
09 17.09 штиль 0 15 км 1/0
[Ci fib]
+31.8 +5.2 19 +30 +48 жарко 1006.5 889.1
12 17.09 ЮЗ 12 10 км 4/1 1200 м
[Cu hum Ci sp]
+35.8 +0.7 11 +32 +32 жарко 1003.8 886.9
15 17.09 ЮЗ 5 12 км 4/3 1200 м
[Cu hum Ci sp]
+31.6 +5.5 19 +30 +30 жарко 1005.5 886.9 +36.4
18 17.09 ЮЗ 3 10 км 1/1 1200 м
[Sc diur, vesp]
+26.8 +7.2 29 +26 +26 жарко 1006.2 888.0
21 17.09 штиль 0 10 км 4/1 1200 м
[Sc diur, vesp Ci sp]
+23.0 +7.4 37 +24 +24 комфорт 1006.2 888.8
00 18.09 штиль 0 10 км 1/0
[Ci fib]
+20.4 +8.0 45 +21 +21 комфорт 1006.3 889.2
03 18.09 штиль 0 12 км ясно +18.2 +7.8 51 +18 +18 1009.5 890.8 +17.2
06 18.09 штиль 0 12 км ясно +24.8 +8.6 36 +25 +36 комфорт 1011.0 892.5
09 18.09 СВ 2 12 км ясно +30.2 +6.9 23 +29 +43 жарко 1009.6 891.5
12 18.09 ЮВ 3 15 км ясно +32.8 +7.7 21 +31 +37 жарко 1007.6 889.8
15 18.09 штиль 0 15 км ясно +30.4 +7.3 24 +29 +29 жарко 1008.7 889.9 +33.4
18 18.09 штиль 0 15 км ясно +24.4 +10.3 41 +25 +25 комфорт 1010.6 891.8
21 18.09 штиль 0 15 км ясно +20.6 +7.8 44 +22 +22 комфорт 1010.4 891.8
00 19.09 СЗ 2 15 км ясно +17.6 +5.5 45 +18 +18 1010.5 891.8
03 19.09 штиль 0 15 км ясно +14.6 +4.4 50 +15 +15 1013.2 893.1 +14.6
06 19.09 Ю 2 18 км ясно +22.0 +7.8 40 +23 +31 комфорт 1013.4 893.7
09 19.09 штиль 0 18 км ясно +29.8 +10.9 31 +30 +49 жарко 1010.5 891.9
12 19.09 ЮВ 2 20 км ясно +33.4 +7.1 20 +32 +38 жарко 1008.1 889.8
15 19.09 штиль 0 20 км ясно +29.6 +7.6 25 +29 +29 жарко 1009.6 889.8 +33.6
18 19.09 С 2 15 км ясно +24.0 +7.9 36 +24 +24 комфорт 1011.2 891.6
21 19.09 С 2 15 км ясно +20.2 +5.7 39 +22 +22 комфорт 1010.4 891.6
00 20.09 З 2 15 км ясно +17.0 +4.1 42 +17 +17 1011.0 892.2
03 20.09 З 2 15 км ясно +15.6 +4.3 47 +16 +16 1012.6 892.6 +15.6
06 20.09 штиль 0 15 км ясно +21.2 +4.5 33 +21 +31 комфорт 1013.3 893.2
09 20.09 штиль 0 15 км 1/0
[Ci sp]
+29.2 +10.9 32 +30 +48 жарко 1008.5 890.0
12 20.09 В 2 15 км ясно +33.8 +8.4 21 +32 +38 жарко 1005.1 887.2
15 20.09 З 2 15 км ясно +31.4 +6.3 21 +30 +30 жарко 1005.5 886.7 +34.8
18 20.09 штиль 0 15 км ясно +24.8 +3.7 25 +24 +24 комфорт 1007.6 888.3
21 20.09 штиль 0 15 км ясно +19.2 +3.6 36 +19 +19 1007.6 888.7
00 21.09 штиль 0 15 км ясно +17.4 +1.9 35 +17 +17 1007.7 889.3
03 21.09 штиль 0 15 км ясно +15.0 +2.3 42 +15 +15 1008.1 888.8 +14.8
06 21.09 штиль 0 15 км ясно +23.6 +6.8 34 +24 +34 комфорт 1006.4 887.8
09 21.09 штиль 0 15 км 1/1 1200 м
[Cu hum]
+32.2 +9.4 24 +31 +48 жарко 1002.5 885.0
12 21.09 ЮЗ 9 15 км 4/4 1200 м
[Sc diur, vesp]
+35.8 +9.4 20 +34 +35 очень
жарко
998.9 882.2
15 21.09 ЮЗ 7 12 км 3/3 1200 м
[Sc diur, vesp]
+33.0 +7.6 21 +31 +31 жарко 1000.3 882.4 +36.4 666
18 21.09 ЮЗ 3 12 км 4/3 1200 м
[Sc diur, vesp Ci sp]
+26.4 +6.6 28 +26 +26 жарко 1001.2 883.5
21 21.09 штиль 0 12 км 3/1 1200 м
[Sc diur, vesp Ci sp]
+23.2 +7.7 37 +24 +24 комфорт 1000.5 883.9
00 22.09 СВ 6 12 км 1/1 1200 м
[Sc diur, vesp]
+21.2 +12.9 59 +23 +23 комфорт 1001.3 885.1
03 22.09 СВ 6 20 км ясно +18.2 +11.3 64 +18 +18 1006.1 888.3 +16.4

 

Местоположение метеостанции Миан (Иран): широта 37.45 долгота 47.70 высота над уровнем моря 1110 м.

В архиве по умолчанию представлена погода в Миане за последнюю неделю. Архивные данные за месяц целиком и за предыдущие месяцы, начиная с января 2011 года, Вы можете получить, выбрав интересующий диапазон дат из раскрывающегося списка и нажав кнопку "Ввод!".


*Определитесь, кто Вы:
робот инопланетянин человек

Внимание! Время в таблицах - всемирное. Для получения местного времени необходимо прибавить поправку, которая равна 3.5 ч.

Смотрите также архив погоды в соседних городах и на ближайших метеорологических станциях:

Погода в Серабе (Иран) (55 км)
Погода в Ардебиле (Иран) (103 км)
Погода в Зенджане (Иран) (110 км)
Погода в Ахаре (Иран) (122 км)
Погода в Мераге (Иран) (126 км)
Погода в Тебризе (Иран) (143 км)
Погода в Астаре (Азербайджан) (152 км)
Погода в Энзели (Иран) (156 км)
Погода в Реште (Иран) (173 км)
Погода в Лянкяране (Азербайджан) (173 км)

Пояснения к столбцам:

Ветер - указаны скорость ветра в м/с - средняя за 10 мин, порывы в срок и между сроками (в фигурных скобках) и направление, откуда дует ветер: С - северный, СВ - северо-восточный, В - восточный, ЮВ - юго-восточный, Ю - южный, ЮЗ - юго-западный, З - западный, СЗ - северо-западный.
Видимость - горизонтальная дальность видимости в метрах или километрах. При видимости от 1 до 10 км при отсутствии осадков обычно наблюдается дымка, при ухудшении видимости до 1 км и менее - туман. В сухую погоду видимость может ухудшаться дымом, пылью или мглою.
Явления - указаны атмосферные явления, наблюдавшиеся в срок или в последний час перед сроком; фигурными скобками обозначены явления, наблюдавшиеся между сроками (за 1-3 часа до срока); квадратными скобками обозначены град или гололедные отложения с указанием их диаметра в мм.
Облачность - указаны через наклонную черту общая и нижняя облачность в баллах и высота нижней границы облаков в метрах; квадратными скобками обозначены формы облаков: Ci - перистые, Cs - перисто-слоистые, Cc - перисто-кучевые, Ac - высококучевые, As - высокослоистые, Sc - слоисто-кучевые, Ns - слоисто-дождевые, Cu - кучевые, Cb - кучево-дождевые. Подробнее классификацию облаков см. в Атласе облаков (PDF).
T - Температура воздуха - температура, измеренная на высоте 2 м над землей.
Td - Температура точки росы - температура, при понижении до которой содержащийся в воздухе водяной пар достигнет насыщения.
f - Относительная влажность воздуха - влажноcть воздуха, измеренная на высоте 2 м над землей.
Te - Эффективная температура - температура, которую ощущает одетый по сезону человек в тени. Характеристика душности погоды. При расчете учитывается влияние влажности воздуха и скорости ветра на теплоощущения человека.
Tes - Эффективная температура на солнце - температура, которую ощущает человек, с поправкой на солнечный нагрев. Характеристика знойности погоды. Зависит от высоты солнца над горизонтом, облачности и скорости ветра. Ночью, в пасмурную погоду, а также при ветре 12 м/с и более поправка равна нулю.
P - Атмосферное давление - приведенное к уровню моря атмосферное давление.
Po - Атмосферное давление - измеренное на уровне метеостанции атмосферное давление.
Tmin - Минимальная температура - минимум температуры воздуха на высоте 2 м над землей.
Tmax - Максимальная температура - максимум температуры воздуха на высоте 2 м над землей.
R - Количество осадков - Количество выпавших осадков за период времени, мм. При наведении курсора мыши на число - период времени, за который выпало указанное количество осадков.
R24 - Количество осадков - Количество выпавших осадков за 24 часа, мм.
S - Снежный покров - Высота снежного покрова, см. При наведении курсора мыши на число - состояние снежного покрова и степень покрытия местности в баллах.